�N����,����,����,����,����,�C��,���x,�~����,�S�V����,�ő�u�ԕ���,,,
,,,,,,,,,����,����,����,�N��
yyyy/mm/dd,hh:mm:ss,(16),16����,m/s,��,%,mm,KW/�u,(16),16����,m/s,Time
2013/4/1,1:00:00,270,��,2.2,-2.8,83,0,0,45,�k��,3.3,10
2013/4/1,2:00:00,225,�쐼,0.5,-4,82.1,0,0,135,�쓌,2.5,0
2013/4/1,3:00:00,68,���k��,0.6,-4.8,88.9,0,0,180,��,2,15
2013/4/1,4:00:00,293,���k��,1.9,-5.6,90.9,0,0,270,��,4.9,48
2013/4/1,5:00:00,315,�k��,0.6,-6.1,94.5,0,0,338,�k�k��,2.5,28
2013/4/1,6:00:00,360,�k,0.5,-5,94.1,0,0.05,270,��,2.5,27
2013/4/1,7:00:00,315,�k��,0.9,-0.9,78.4,0,0.22,180,��,2.3,5
2013/4/1,8:00:00,270,��,0.8,2.1,59.9,0,0.43,135,�쓌,2.5,16
2013/4/1,9:00:00,293,���k��,1.4,3.7,45.2,0,0.63,360,�k,4,58
2013/4/1,10:00:00,315,�k��,2.3,4.2,43,0,0.71,225,�쐼,4.8,19
2013/4/1,11:00:00,338,�k�k��,3.3,4.7,37.7,0,0.88,315,�k��,6.2,58
2013/4/1,12:00:00,45,�k��,1.6,5.8,33.2,0,0.88,338,�k�k��,7.2,8
2013/4/1,13:00:00,135,�쓌,2.5,5.2,42.7,0,0.89,113,���쓌,4.8,50
2013/4/1,14:00:00,158,��쓌,4.5,5.4,48.4,0,0.79,158,��쓌,7.1,44
2013/4/1,15:00:00,158,��쓌,4.1,4.7,47.1,0,0.65,158,��쓌,6.6,59
2013/4/1,16:00:00,158,��쓌,3.2,4.7,47.4,0,0.38,180,��,7.8,32
2013/4/1,17:00:00,203,��쐼,2.7,5.2,43.5,0,0.24,158,��쓌,6.1,23
2013/4/1,18:00:00,248,���쐼,4.6,3.8,48.2,0,0.04,248,���쐼,9.3,18
2013/4/1,19:00:00,248,���쐼,3.1,3.2,53.1,0,0,90,��,7.9,10
2013/4/1,20:00:00,248,���쐼,3.2,2.3,59.8,0,0,248,���쐼,6.1,26
2013/4/1,21:00:00,225,�쐼,3.9,3.2,57.6,0,0,225,�쐼,6,3
2013/4/1,22:00:00,270,��,1.3,1.3,66.9,0,0,270,��,6.9,1
2013/4/1,23:00:00,23,�k�k��,1.8,-1.6,77.8,0,0,248,���쐼,3.3,43
2013/4/1,0:00:00,225,�쐼,1.3,-3.1,86.8,0,0,248,���쐼,2.2,17
2013/4/2,1:00:00,270,��,2,-4.3,92,0,0,23,�k�k��,2.5,58
2013/4/2,2:00:00,360,�k,1.1,-4.9,92.1,0,0,23,�k�k��,3.4,5
2013/4/2,3:00:00,360,�k,1.3,-5.4,93,0,0.01,360,�k,2.3,50
2013/4/2,4:00:00,315,�k��,1.6,-5.1,92.7,0,0,135,�쓌,2.6,0
2013/4/2,5:00:00,338,�k�k��,1.1,-5.6,92.3,0,0,270,��,2.9,33
2013/4/2,6:00:00,338,�k�k��,1.9,-4.1,92.3,0,0.03,225,�쐼,3.1,10
2013/4/2,7:00:00,270,��,1.7,-1.7,84.5,0,0.16,158,��쓌,2.4,48
2013/4/2,8:00:00,45,�k��,1,2.1,76,0,0.32,225,�쐼,2.5,11
2013/4/2,9:00:00,158,��쓌,2,4.3,64.3,0,0.44,135,�쓌,3.5,56
2013/4/2,10:00:00,225,�쐼,4.8,8.2,53.1,0,0.65,225,�쐼,8.8,49
2013/4/2,11:00:00,203,��쐼,4.8,7.4,51.9,0,0.78,225,�쐼,8.6,0
2013/4/2,12:00:00,203,��쐼,4.4,7.7,53.9,0,0.87,203,��쐼,9.2,35
2013/4/2,13:00:00,180,��,4.7,8.9,55.4,0,0.59,180,��,8.5,45
2013/4/2,14:00:00,180,��,5.3,8.7,53.7,0,0.7,180,��,9.5,17
2013/4/2,15:00:00,180,��,4.7,6.1,64.6,0,0.61,158,��쓌,9.3,36
2013/4/2,16:00:00,180,��,3.9,5.5,65.6,0,0.41,180,��,7.5,25
2013/4/2,17:00:00,203,��쐼,3.1,4.6,65.9,0,0.21,180,��,7.4,18
2013/4/2,18:00:00,203,��쐼,3.2,2.9,73.4,0,0.04,180,��,8.6,38
2013/4/2,19:00:00,203,��쐼,4.2,2.5,81.3,0,0,203,��쐼,8.4,55
2013/4/2,20:00:00,203,��쐼,0.4,2.3,81.5,0,0,180,��,7.4,9
2013/4/2,21:00:00,68,�É�,0,-0.2,91,0,0,270,��,3.1,17
2013/4/2,22:00:00,90,��,0.4,-1.5,91.7,0,0,225,�쐼,2.7,13
2013/4/2,23:00:00,68,���k��,1.3,-1.2,94.8,0,0,360,�k,2.5,14
2013/4/2,0:00:00,293,���k��,0.9,-2.3,96.2,0,0,360,�k,2.8,27
2013/4/3,1:00:00,338,�k�k��,0.8,-0.7,94.9,0,0,360,�k,3.1,21
2013/4/3,2:00:00,338,�k�k��,1,0.2,96.5,0,0,338,�k�k��,2.5,45
2013/4/3,3:00:00,315,�k��,2.5,0.4,96.9,0.5,0,90,��,3.8,55
2013/4/3,4:00:00,338,�k�k��,1.7,0.7,98.7,1,0,23,�k�k��,3,0
2013/4/3,5:00:00,23,�k�k��,1.2,0.9,97.8,1.5,0,68,���k��,2.8,42
2013/4/3,6:00:00,360,�k,1,1,97.6,0,0.01,45,�k��,3.1,28
2013/4/3,7:00:00,360,�k,0.7,1.3,98.8,1,0.02,23,�k�k��,2.2,38
2013/4/3,8:00:00,338,�k�k��,2.1,1.8,99.2,0,0.06,135,�쓌,2.9,59
2013/4/3,9:00:00,315,�k��,1.9,3.1,97,0,0.12,315,�k��,2.8,8
2013/4/3,10:00:00,360,�k,1.5,4.6,92,0,0.29,45,�k��,3.5,8
2013/4/3,11:00:00,23,�k�k��,1.5,4.6,92.6,0,0.2,68,���k��,4.2,41
2013/4/3,12:00:00,23,�k�k��,1.3,5.8,88.6,0,0.31,23,�k�k��,3.2,29
2013/4/3,13:00:00,68,���k��,3.6,5.4,92.2,0,0.32,68,���k��,5.2,53
2013/4/3,14:00:00,68,���k��,4,5.4,93.4,0,0.27,68,���k��,6.7,45
2013/4/3,15:00:00,68,���k��,3.6,5.2,93,0,0.17,45,�k��,6,7
2013/4/3,16:00:00,68,���k��,1.8,5.3,92.6,0,0.09,68,���k��,4.9,5
2013/4/3,17:00:00,68,���k��,1.6,5,92.8,0,0.04,45,�k��,2.9,6
2013/4/3,18:00:00,68,���k��,1.3,4.6,94.2,0,0.01,68,���k��,2.1,56
2013/4/3,19:00:00,45,�k��,0.9,4.1,98.2,0,0,68,���k��,2.3,39
2013/4/3,20:00:00,338,�k�k��,1.2,4,99.4,0,0,315,�k��,2.1,0
2013/4/3,21:00:00,360,�k,1.2,4.3,99.7,0,0,315,�k��,2.8,23
2013/4/3,22:00:00,45,�k��,1.2,4.2,99.8,0,0,338,�k�k��,2.1,0
2013/4/3,23:00:00,360,�k,1,4.5,99.8,0,0,338,�k�k��,2.6,28
2013/4/3,0:00:00,338,�k�k��,0.4,4.4,99.8,0,0,338,�k�k��,1.9,40
2013/4/4,1:00:00,135,�쓌,1.3,3.5,100,0,0,135,�쓌,2.1,59
2013/4/4,2:00:00,270,��,1,3.8,100,0,0,293,���k��,2.6,39
2013/4/4,3:00:00,113,���쓌,1.7,3.5,100,0,0,113,���쓌,2.2,56
2013/4/4,4:00:00,68,���k��,1.1,3.8,100,0,0,270,��,2.8,39
2013/4/4,5:00:00,113,���쓌,1,3.6,100,0,0,270,��,2.4,9
2013/4/4,6:00:00,158,��쓌,1,3.6,100,0,0.03,248,���쐼,2.5,6
2013/4/4,7:00:00,135,�쓌,1.3,4,100,0,0.1,158,��쓌,2.5,54
2013/4/4,8:00:00,180,��,2.5,3.8,100,0,0.22,158,��쓌,5,36
2013/4/4,9:00:00,180,��,3.1,4.5,100,0,0.32,180,��,6.2,54
2013/4/4,10:00:00,180,��,4.6,7.2,83.8,0,0.58,180,��,8.6,36
2013/4/4,11:00:00,203,��쐼,4.6,9.1,76,0,0.77,203,��쐼,10.7,26
2013/4/4,12:00:00,360,�k,5.2,8.5,79,0,0.44,360,�k,9.4,47
2013/4/4,13:00:00,90,��,4.1,7,80.2,0,0.67,23,�k�k��,7.2,2
2013/4/4,14:00:00,135,�쓌,2.9,7,77.3,0,0.74,113,���쓌,5,13
2013/4/4,15:00:00,180,��,3.1,6.5,81.6,0,0.61,90,��,5,8
2013/4/4,16:00:00,180,��,2,8.1,73.4,0,0.44,180,��,4.4,17
2013/4/4,17:00:00,203,��쐼,0.4,5.8,83.7,0,0.23,90,��,3.9,8
2013/4/4,18:00:00,23,�k�k��,1.9,3.5,86.8,0,0.05,23,�k�k��,3.3,52
2013/4/4,19:00:00,23,�k�k��,1.6,4.6,49,0,0,203,��쐼,7.6,26
2013/4/4,20:00:00,90,��,1.8,1.1,92.4,0,0,90,��,6.1,34
2013/4/4,21:00:00,360,�k,0.4,0.5,100,0,0,338,�k�k��,3.3,32
2013/4/4,22:00:00,135,�쓌,2.1,0.9,99,0,0,135,�쓌,3.5,58
2013/4/4,23:00:00,203,��쐼,1,0.5,100,0,0,158,��쓌,3.1,4
2013/4/4,0:00:00,180,��,0.6,-0.4,100,0,0,180,��,1.8,19
2013/4/5,1:00:00,225,�쐼,1,0.8,100,0,0,225,�쐼,2.5,51
2013/4/5,2:00:00,203,��쐼,1.1,0.8,100,0,0,180,��,2.1,58
2013/4/5,3:00:00,203,��쐼,1.6,0.7,97.7,0,0,203,��쐼,2.7,21
2013/4/5,4:00:00,225,�쐼,2.2,0.6,96.2,0,0,248,���쐼,3.9,56
2013/4/5,5:00:00,225,�쐼,2.5,0.5,96.3,0,0,225,�쐼,5.1,45
2013/4/5,6:00:00,203,��쐼,1.5,0.2,98.6,0,0.02,225,�쐼,4.2,5
2013/4/5,7:00:00,225,�쐼,1.8,0.5,96.3,0,0.11,225,�쐼,3.2,28
2013/4/5,8:00:00,135,�쓌,2.2,1.4,90,0,0.24,135,�쓌,3.8,53
2013/4/5,9:00:00,135,�쓌,2.2,0.9,92.6,0,0.45,135,�쓌,4,23
2013/4/5,10:00:00,158,��쓌,2.9,0.9,89,0,0.5,113,���쓌,5.1,9
2013/4/5,11:00:00,90,��,2.4,1.4,90.5,0,0.52,135,�쓌,5.1,44
2013/4/5,12:00:00,90,��,2.6,1.6,87.4,0,0.65,113,���쓌,4.5,43
2013/4/5,13:00:00,113,���쓌,2,3.5,80.2,0,0.8,158,��쓌,4.3,8
2013/4/5,14:00:00,90,��,4.1,1.3,89.5,0,0.71,113,���쓌,5.9,50
2013/4/5,15:00:00,90,��,2.9,2.2,87.7,0,0.48,90,��,4.7,56
2013/4/5,16:00:00,90,��,3.2,2.3,88.6,0,0.41,90,��,5,51
2013/4/5,17:00:00,68,���k��,3,0.8,93.4,0,0.19,45,�k��,5.7,41
2013/4/5,18:00:00,68,���k��,3.3,0.3,96.6,0,0.03,68,���k��,4.9,49
2013/4/5,19:00:00,23,�k�k��,3,0.1,97,0,0,45,�k��,4.8,14
2013/4/5,20:00:00,45,�k��,2.5,0.3,97.1,0,0,45,�k��,6.3,11
2013/4/5,21:00:00,23,�k�k��,2.6,-0.1,96.6,0,0,45,�k��,4.5,0
2013/4/5,22:00:00,23,�k�k��,1.7,-0.1,97.1,0,0,23,�k�k��,3.5,14
2013/4/5,23:00:00,23,�k�k��,1.3,-0.2,99,0,0,23,�k�k��,2.5,18
2013/4/5,0:00:00,23,�k�k��,1.9,-0.4,100,0,0,45,�k��,2.8,52
2013/4/6,1:00:00,45,�k��,2.3,-0.2,100,0,0,45,�k��,4.7,29
2013/4/6,2:00:00,90,��,2,-0.5,99.5,0,0,90,��,3.2,57
2013/4/6,3:00:00,360,�k,0.9,-0.5,98.6,0,0,68,���k��,3.7,39
2013/4/6,4:00:00,338,�k�k��,1.4,-0.4,98.4,0,0,338,�k�k��,2.3,58
2013/4/6,5:00:00,315,�k��,1.2,-0.6,98.5,0,0,293,���k��,3.3,21
2013/4/6,6:00:00,45,�k��,2.2,-0.3,98.3,0,0.02,45,�k��,3.3,55
2013/4/6,7:00:00,23,�k�k��,0.5,-0.2,98.2,0,0.04,45,�k��,2.6,42
2013/4/6,8:00:00,68,���k��,0.8,0.7,94.8,0,0.09,68,���k��,3,27
2013/4/6,9:00:00,23,�k�k��,2,1.8,87.7,0,0.22,23,�k�k��,3.5,52
2013/4/6,10:00:00,90,��,4,2.9,82.7,0,0.38,90,��,5.5,43
2013/4/6,11:00:00,68,���k��,4.9,2.8,86.8,0,0.36,68,���k��,7.1,56
2013/4/6,12:00:00,68,���k��,3.6,2.6,87.4,0,0.21,90,��,7,0
2013/4/6,13:00:00,68,���k��,3.6,3.3,81.4,0,0.2,68,���k��,5.6,4
2013/4/6,14:00:00,68,���k��,3.4,3.7,76.6,0,0.15,68,���k��,5.8,46
2013/4/6,15:00:00,45,�k��,3.4,3,82.6,0,0.08,68,���k��,4.9,53
2013/4/6,16:00:00,338,�k�k��,1.6,2.4,93.4,0,0.05,45,�k��,5.8,3
2013/4/6,17:00:00,315,�k��,2.1,2.9,98.6,0,0.02,338,�k�k��,3.3,21
2013/4/6,18:00:00,315,�k��,2.3,3.3,99.1,0,0.01,338,�k�k��,4.7,30
2013/4/6,19:00:00,315,�k��,1.9,3.4,98.7,0,0,315,�k��,4.8,7
2013/4/6,20:00:00,360,�k,1.3,3.5,98.5,0,0,338,�k�k��,4.7,20
2013/4/6,21:00:00,360,�k,1,3.4,99.5,0,0,23,�k�k��,2.5,39
2013/4/6,22:00:00,360,�k,1.5,3.3,99.9,0.5,0,360,�k,2.9,53
2013/4/6,23:00:00,45,�k��,3.2,3.1,100,0,0,23,�k�k��,5,44
2013/4/6,0:00:00,45,�k��,4.7,3.2,100,0,0,68,���k��,8,55
2013/4/7,1:00:00,45,�k��,4.5,3.1,100,0,0,45,�k��,7.1,24
2013/4/7,2:00:00,45,�k��,3,3,100,2,0,45,�k��,7.1,8
2013/4/7,3:00:00,23,�k�k��,2.1,3.2,100,4,0,23,�k�k��,4.6,28
2013/4/7,4:00:00,158,��쓌,3.2,6.2,100,5.5,0,158,��쓌,7.9,57
2013/4/7,5:00:00,90,��,3.8,4.6,100,4,0,135,�쓌,9.6,33
2013/4/7,6:00:00,113,���쓌,8.5,5.4,100,3.5,0.01,135,�쓌,12.9,53
2013/4/7,7:00:00,90,��,9.6,5.1,100,6,0.01,113,���쓌,15.6,23
2013/4/7,8:00:00,90,��,10.7,5.1,100,5.5,0.02,90,��,15.1,56
2013/4/7,9:00:00,90,��,12.5,5.2,100,5,0.02,90,��,18.8,55
2013/4/7,10:00:00,68,���k��,10.3,5,99.9,9,0.04,90,��,19,12
2013/4/7,11:00:00,68,���k��,9.7,4.9,99.7,10,0.08,68,���k��,17.2,9
2013/4/7,12:00:00,45,�k��,12.3,4.4,99.3,5.5,0.13,68,���k��,20.3,42
2013/4/7,13:00:00,45,�k��,10.1,4.3,98.8,2.5,0.13,45,�k��,17.8,0
2013/4/7,14:00:00,45,�k��,7.1,4.6,98.8,2.5,0.07,45,�k��,14.5,8
2013/4/7,15:00:00,360,�k,4.7,5.4,98.2,1.5,0.04,45,�k��,11.8,5
2013/4/7,16:00:00,315,�k��,3.2,5.6,98.6,8,0.02,338,�k�k��,6.2,49
2013/4/7,17:00:00,360,�k,3.7,6.1,96.9,3,0.05,360,�k,7.8,44
2013/4/7,18:00:00,315,�k��,2.7,5.9,96.8,0,0.02,23,�k�k��,6.1,1
2013/4/7,19:00:00,315,�k��,2.7,5.9,98.8,0,0,315,�k��,5.3,28
2013/4/7,20:00:00,315,�k��,3.6,5.9,97.1,0,0,315,�k��,6.3,58
2013/4/7,21:00:00,315,�k��,3.7,5.8,96.8,0,0,315,�k��,7.4,35
2013/4/7,22:00:00,315,�k��,3.3,5.8,97,0,0,315,�k��,6.9,39
2013/4/7,23:00:00,338,�k�k��,2.4,5.8,97.6,0.5,0,293,���k��,6.3,41
2013/4/7,0:00:00,293,���k��,2.5,5.6,98.4,2,0,315,�k��,5.1,12
2013/4/8,1:00:00,248,���쐼,1.8,5.6,98.9,1.5,0,293,���k��,3,1
2013/4/8,2:00:00,248,���쐼,0.9,5.3,99.2,0.5,0,248,���쐼,2.4,2
2013/4/8,3:00:00,270,��,1.5,5.3,99.5,0,0,270,��,2.1,33
2013/4/8,4:00:00,248,���쐼,0.9,4.9,99.4,0,0,270,��,1.8,3
2013/4/8,5:00:00,315,�k��,1.7,5.8,99.6,1,0,315,�k��,2.5,56
2013/4/8,6:00:00,248,���쐼,0.4,5.5,98.9,2,0.01,315,�k��,3.5,15
2013/4/8,7:00:00,225,�쐼,1.6,6.8,99.5,1,0.08,248,���쐼,2.2,56
2013/4/8,8:00:00,90,��,0.6,8.6,95.7,0,0.23,315,�k��,3.6,31
2013/4/8,9:00:00,158,��쓌,1.8,9.2,89.3,0,0.35,158,��쓌,2.8,39
2013/4/8,10:00:00,158,��쓌,1.8,9.7,76.6,0,0.33,90,��,4.4,38
2013/4/8,11:00:00,270,��,4.4,10.4,54.7,0,0.32,270,��,7.2,34
2013/4/8,12:00:00,315,�k��,4.1,10.3,50.4,0,0.37,270,��,8.1,6
2013/4/8,13:00:00,315,�k��,4.4,10.7,48.6,0,0.37,315,�k��,9.6,53
2013/4/8,14:00:00,338,�k�k��,5.9,10.5,44.6,0,0.53,338,�k�k��,11.6,50
2013/4/8,15:00:00,315,�k��,5.5,10.2,43.4,0,0.59,360,�k,10.7,10
2013/4/8,16:00:00,270,��,5.7,8.2,47,0,0.43,293,���k��,10,9
2013/4/8,17:00:00,293,���k��,3,7.8,48.3,0,0.14,270,��,8.3,16
2013/4/8,18:00:00,315,�k��,3.2,6.9,46.7,0,0.04,315,�k��,8.6,17
2013/4/8,19:00:00,315,�k��,2.5,6,54,0,0,338,�k�k��,6.5,23
2013/4/8,20:00:00,338,�k�k��,1.5,5.9,50.7,0,0,293,���k��,5.2,3
2013/4/8,21:00:00,248,���쐼,0.7,4.5,61,0,0,338,�k�k��,4,5
2013/4/8,22:00:00,270,��,2.1,5.5,53.5,0,0,293,���k��,4.9,35
2013/4/8,23:00:00,68,�É�,0,3.2,61.4,0,0,293,���k��,3.6,15
2013/4/8,0:00:00,248,���쐼,1.3,1.1,80.1,0,0,293,���k��,3.2,56
2013/4/9,1:00:00,293,���k��,2.3,0.1,78.6,0,0,270,��,3.7,50
2013/4/9,2:00:00,360,�k,0.4,-1.3,83.4,0,0,360,�k,2.4,27
2013/4/9,3:00:00,270,��,1.2,-1.3,88.8,0,0,270,��,3.9,35
2013/4/9,4:00:00,293,���k��,0.9,-2.6,93.5,0,0,270,��,2.6,0
2013/4/9,5:00:00,293,���k��,1.1,-2.4,90.6,0,0.01,68,���k��,2.9,26
2013/4/9,6:00:00,270,��,1.6,-1.1,90.4,0,0.06,270,��,2.4,54
2013/4/9,7:00:00,90,�É�,0.2,3.6,72.6,0,0.23,315,�k��,6.9,45
2013/4/9,8:00:00,135,�쓌,3.7,5.8,55.7,0,0.42,135,�쓌,5.6,55
2013/4/9,9:00:00,113,���쓌,3.7,6.3,52.6,0,0.6,113,���쓌,6.8,1
2013/4/9,10:00:00,113,���쓌,5.1,7.4,47.6,0,0.73,113,���쓌,7.2,52
2013/4/9,11:00:00,113,���쓌,4.8,8.5,47.5,0,0.83,113,���쓌,7.8,30
2013/4/9,12:00:00,113,���쓌,4.4,7.1,48.4,0,0.85,113,���쓌,8,6
2013/4/9,13:00:00,158,��쓌,1.9,10.6,44.5,0,0.84,113,���쓌,4.8,26
2013/4/9,14:00:00,248,���쐼,6.5,11.7,50.3,0,0.68,248,���쐼,13.7,13
2013/4/9,15:00:00,225,�쐼,5.2,10,57.5,0,0.26,248,���쐼,12.5,15
2013/4/9,16:00:00,180,��,4.1,8.1,61.5,0,0.24,180,��,7.5,49
2013/4/9,17:00:00,135,�쓌,4.4,5.1,69.9,0,0.25,158,��쓌,9,45
2013/4/9,18:00:00,180,��,3.3,4.5,72.4,0,0.05,180,��,10.9,12
2013/4/9,19:00:00,135,�쓌,2,1.6,92.4,0,0,158,��쓌,7.4,27
2013/4/9,20:00:00,135,�쓌,1.8,2.3,90.9,0,0,135,�쓌,4.4,26
2013/4/9,21:00:00,180,��,4.2,5.6,86.9,0,0,225,�쐼,7.8,38
2013/4/9,22:00:00,158,��쓌,2.8,3.8,93.8,0,0,180,��,8,3
2013/4/9,23:00:00,270,��,6.5,6.3,78.8,0,0,270,��,9.9,50
2013/4/9,0:00:00,248,���쐼,4,5.5,72.7,0,0,225,�쐼,8.7,40
2013/4/10,1:00:00,203,��쐼,3,4.8,74,0,0,225,�쐼,5.6,36
2013/4/10,2:00:00,225,�쐼,5.5,5.8,64,0,0,248,���쐼,8.5,58
2013/4/10,3:00:00,225,�쐼,2.8,4.5,66.9,0,0,248,���쐼,10.1,18
2013/4/10,4:00:00,203,��쐼,3,4,67.1,0,0,203,��쐼,5.5,59
2013/4/10,5:00:00,45,�k��,1.1,2.2,76.3,0,0.01,203,��쐼,6.5,5
2013/4/10,6:00:00,180,��,2.2,4.1,77.9,0,0.09,158,��쓌,5.8,43
2013/4/10,7:00:00,225,�쐼,3.2,6.7,58.8,0,0.28,225,�쐼,4.9,54
2013/4/10,8:00:00,248,���쐼,4.8,8,46.7,0,0.43,248,���쐼,9.2,59
2013/4/10,9:00:00,248,���쐼,5.8,8.9,41.7,0,0.68,248,���쐼,10.4,6
2013/4/10,10:00:00,248,���쐼,7.7,9.7,40.1,0,0.85,270,��,12.5,54
2013/4/10,11:00:00,270,��,8.6,9,39.4,0,0.88,293,���k��,15.9,25
2013/4/10,12:00:00,293,���k��,5.4,8.8,39.3,0,0.72,270,��,12.2,25
2013/4/10,13:00:00,248,���쐼,8.3,10.1,33.7,0,0.86,225,�쐼,14,34
2013/4/10,14:00:00,248,���쐼,6.6,8.8,39,0,0.73,248,���쐼,14.2,14
2013/4/10,15:00:00,248,���쐼,8.3,8.9,42.9,0,0.63,225,�쐼,14.3,39
2013/4/10,16:00:00,225,�쐼,7,6.5,60.3,0,0.44,225,�쐼,12.8,14
2013/4/10,17:00:00,270,��,8.1,6.5,48.9,0,0.25,248,���쐼,13.4,41
2013/4/10,18:00:00,225,�쐼,4.9,5.3,50,0,0.07,248,���쐼,10.5,2
2013/4/10,19:00:00,248,���쐼,3.8,4.3,52.6,0,0,248,���쐼,8.7,44
2013/4/10,20:00:00,203,��쐼,1.7,3.2,58.7,0,0,248,���쐼,5.9,1
2013/4/10,21:00:00,203,��쐼,1.2,1.8,70.5,0,0,203,��쐼,3.2,4
2013/4/10,22:00:00,293,���k��,0.9,-0.9,81.6,0,0,293,���k��,3.3,50
2013/4/10,23:00:00,248,���쐼,3.4,1.4,70.3,0,0,248,���쐼,4.7,58
2013/4/10,0:00:00,248,���쐼,3.5,2,56.9,0,0,248,���쐼,8.5,34
2013/4/11,1:00:00,248,���쐼,1.5,-1.1,68.4,0,0,248,���쐼,4.9,19
2013/4/11,2:00:00,315,�k��,0.8,-3.4,84,0,0,360,�k,1.9,47
2013/4/11,3:00:00,293,���k��,0.9,-3,88.2,0,0,45,�k��,2.5,13
2013/4/11,4:00:00,293,���k��,1.6,-3,88.4,0,0,315,�k��,2.6,52
2013/4/11,5:00:00,315,�k��,1.3,-3.5,88.9,0,0.01,225,�쐼,2.5,44
2013/4/11,6:00:00,338,�k�k��,0.3,-1.6,85.3,0,0.07,293,���k��,2.5,7
2013/4/11,7:00:00,315,�k��,1.1,3,62.3,0,0.28,225,�쐼,3.1,32
2013/4/11,8:00:00,270,��,2.5,6.2,42,0,0.49,270,��,4.2,47
2013/4/11,9:00:00,135,�쓌,3.7,6.2,42.5,0,0.65,135,�쓌,6.4,55
2013/4/11,10:00:00,248,���쐼,5.2,9,38,0,0.84,248,���쐼,9.2,37
2013/4/11,11:00:00,293,���k��,2.2,7.7,38.1,0,0.58,293,���k��,9.6,14
2013/4/11,12:00:00,270,��,6.5,10.1,33.5,0,0.58,270,��,10.9,59
2013/4/11,13:00:00,270,��,5.9,9.8,31.9,0,0.96,270,��,11.1,27
2013/4/11,14:00:00,270,��,7.3,9.8,31.9,0,0.87,248,���쐼,13,17
2013/4/11,15:00:00,248,���쐼,5.1,9.5,27.7,0,0.59,270,��,10,3
2013/4/11,16:00:00,270,��,7.7,9,28.7,0,0.47,293,���k��,11.9,38
2013/4/11,17:00:00,270,��,5.7,7.4,33.6,0,0.26,270,��,11.6,53
2013/4/11,18:00:00,248,���쐼,3.5,5.8,42.1,0,0.05,248,���쐼,7.7,3
2013/4/11,19:00:00,270,��,1.5,4.3,46.8,0,0,248,���쐼,9.5,20
2013/4/11,20:00:00,248,���쐼,2.1,2.8,57.3,0,0,248,���쐼,3.9,43
2013/4/11,21:00:00,360,�k,1,0.9,67.9,0,0,180,��,3.2,13
2013/4/11,22:00:00,270,��,1.2,-2.7,82.8,0,0,180,��,2.4,38
2013/4/11,23:00:00,293,���k��,1,-0.4,83.5,0,0,270,��,2.9,25
2013/4/11,0:00:00,203,��쐼,2,2.1,83.1,0,0,248,���쐼,3.7,38
2013/4/12,1:00:00,203,��쐼,2.5,1.9,91.5,0,0,203,��쐼,4.5,49
2013/4/12,2:00:00,203,��쐼,1.2,1.5,93.2,0,0,203,��쐼,2.9,46
2013/4/12,3:00:00,248,���쐼,0.8,0.8,95.1,0,0,180,��,2,44
2013/4/12,4:00:00,248,���쐼,2.3,1,87.2,0,0,248,���쐼,3.2,53
2013/4/12,5:00:00,113,���쓌,0.7,-1.4,90.5,0,0.01,248,���쐼,2.5,8
2013/4/12,6:00:00,203,��쐼,3.6,2.4,70.7,0,0.07,225,�쐼,5.9,50
2013/4/12,7:00:00,248,���쐼,6.2,5.2,53.8,0,0.28,225,�쐼,10.2,52
2013/4/12,8:00:00,270,��,6.8,6.8,42.8,0,0.5,248,���쐼,11,24
2013/4/12,9:00:00,270,��,8.3,7.4,36.2,0,0.64,248,���쐼,13.8,32
2013/4/12,10:00:00,270,��,8.2,8.7,31.9,0,0.8,293,���k��,13.7,49
2013/4/12,11:00:00,270,��,8.4,10,33.3,0,0.91,248,���쐼,13.9,13
2013/4/12,12:00:00,270,��,8.5,9.9,26.2,0,0.99,270,��,16.3,14
2013/4/12,13:00:00,248,���쐼,9.3,9.3,27.8,0,0.92,248,���쐼,14,59
2013/4/12,14:00:00,248,���쐼,7.7,9.9,29.2,0,0.85,225,�쐼,16,10
2013/4/12,15:00:00,248,���쐼,8.2,9,28,0,0.7,225,�쐼,16.6,6
2013/4/12,16:00:00,248,���쐼,7.6,8.3,27.7,0,0.47,248,���쐼,13.3,9
2013/4/12,17:00:00,248,���쐼,5.4,7.3,34.7,0,0.28,248,���쐼,13.5,20
2013/4/12,18:00:00,248,���쐼,5.6,5.8,33.8,0,0.1,248,���쐼,10.5,43
2013/4/12,19:00:00,248,���쐼,3.5,4,43.8,0,0.01,270,��,9.6,1
2013/4/12,20:00:00,248,���쐼,1.9,3.1,50.3,0,0,248,���쐼,5.7,3
2013/4/12,21:00:00,315,�k��,1,-1.7,73.5,0,0,338,�k�k��,2.8,30
2013/4/12,22:00:00,203,�É�,0,-2.3,78,0,0,180,��,3.3,57
2013/4/12,23:00:00,270,��,1.5,-3.7,83.1,0,0,270,��,2.6,48
2013/4/12,0:00:00,225,�쐼,3.1,0.2,71.5,0,0,225,�쐼,4.8,52
2013/4/13,1:00:00,248,���쐼,5.2,1.9,60.7,0,0,248,���쐼,7,57
2013/4/13,2:00:00,248,���쐼,4.7,2.1,57.6,0,0,248,���쐼,7.9,13
2013/4/13,3:00:00,248,���쐼,4.5,2.2,57.4,0,0,248,���쐼,8.6,20
2013/4/13,4:00:00,225,�쐼,3.6,1.1,61.3,0,0,270,��,5.4,28
2013/4/13,5:00:00,225,�쐼,2.3,-0.2,67.5,0,0.01,225,�쐼,4.5,2
2013/4/13,6:00:00,225,�쐼,3.2,2.6,59.5,0,0.09,225,�쐼,6.2,31
2013/4/13,7:00:00,248,���쐼,4.7,5.4,50.9,0,0.27,248,���쐼,7.1,54
2013/4/13,8:00:00,248,���쐼,4.7,6.9,45.9,0,0.41,248,���쐼,8.7,29
2013/4/13,9:00:00,248,���쐼,5.5,8.4,38.3,0,0.65,270,��,8.8,55
2013/4/13,10:00:00,248,���쐼,6.7,9.7,35.1,0,0.88,225,�쐼,10.2,55
2013/4/13,11:00:00,248,���쐼,6.5,10.4,33,0,0.93,248,���쐼,10.8,27
2013/4/13,12:00:00,270,��,6.5,10.8,36.7,0,1,248,���쐼,11.3,19
2013/4/13,13:00:00,248,���쐼,6.1,11.2,32.3,0,0.99,248,���쐼,12.3,6
2013/4/13,14:00:00,248,���쐼,7.7,10.5,36.4,0,0.75,248,���쐼,12.8,18
2013/4/13,15:00:00,270,��,9.1,9.8,38.7,0,0.71,270,��,13.1,58
2013/4/13,16:00:00,270,��,7.4,9,42,0,0.5,203,��쐼,13.5,22
2013/4/13,17:00:00,248,���쐼,6.8,7.8,47.3,0,0.26,270,��,11.2,49
2013/4/13,18:00:00,248,���쐼,3.5,6.5,53.2,0,0.06,270,��,8.2,1
2013/4/13,19:00:00,203,��쐼,2.5,5.4,55.8,0,0,225,�쐼,4.7,40
2013/4/13,20:00:00,225,�쐼,3.2,5.4,57.2,0,0,225,�쐼,5.6,36
2013/4/13,21:00:00,203,��쐼,2.5,5.4,56.9,0,0,203,��쐼,5.8,6
2013/4/13,22:00:00,180,��,3.6,4.3,71.8,0,0,203,��쐼,8.1,43
2013/4/13,23:00:00,203,��쐼,4.5,4.4,71,0,0,180,��,7.6,53
2013/4/13,0:00:00,180,��,3.8,5.6,61.6,0,0,180,��,9.2,21
2013/4/14,1:00:00,203,��쐼,3.8,4.2,71.4,0,0,203,��쐼,7.7,56
2013/4/14,2:00:00,180,��,3.3,4.4,73,0,0,203,��쐼,8.1,22
2013/4/14,3:00:00,180,��,3.3,4.6,71.3,0,0,180,��,8.3,24
2013/4/14,4:00:00,180,��,3.8,4.8,66.8,0,0,180,��,7.6,37
2013/4/14,5:00:00,203,��쐼,3.1,4.3,69.8,0,0.01,180,��,7.9,41
2013/4/14,6:00:00,203,��쐼,2.6,4.9,67.1,0,0.05,203,��쐼,5.9,2
2013/4/14,7:00:00,180,��,5,4.3,76.3,0,0.19,180,��,9.4,47
2013/4/14,8:00:00,180,��,5.5,5.5,74.6,0,0.31,180,��,9.3,55
2013/4/14,9:00:00,180,��,7.5,5.6,74,0,0.61,158,��쓌,12.4,59
2013/4/14,10:00:00,180,��,6.5,9.2,69,0,0.73,158,��쓌,12.8,49
2013/4/14,11:00:00,180,��,7.6,9.6,62.3,0,0.88,180,��,13.6,56
2013/4/14,12:00:00,180,��,6.7,11.1,51.7,0,0.89,180,��,14.3,17
2013/4/14,13:00:00,180,��,8.8,10.8,61.4,0,0.85,180,��,14.1,47
2013/4/14,14:00:00,180,��,7.3,10.2,62.7,0,0.66,180,��,14.1,18
2013/4/14,15:00:00,180,��,5.5,7.9,70.7,0,0.37,158,��쓌,12.9,7
2013/4/14,16:00:00,158,��쓌,5.7,7.7,74.5,0,0.41,135,�쓌,10.4,30
2013/4/14,17:00:00,270,��,3.3,12.4,60.7,0,0.18,135,�쓌,8.8,11
2013/4/14,18:00:00,225,�쐼,5.3,12.8,52.5,0,0.03,225,�쐼,14.2,36
2013/4/14,19:00:00,225,�쐼,4.1,11.2,56.2,0,0,225,�쐼,13.2,1
2013/4/14,20:00:00,180,��,2.6,10.4,58.9,0,0,225,�쐼,11.5,0
2013/4/14,21:00:00,135,�쓌,4.1,6,75.1,0,0,113,���쓌,7.5,48
2013/4/14,22:00:00,180,��,4.6,5.8,83.9,0,0,180,��,8.2,51
2013/4/14,23:00:00,225,�쐼,7.2,11.5,72.1,0,0,225,�쐼,13.6,47
2013/4/14,0:00:00,225,�쐼,6.4,11,68.3,0,0,225,�쐼,10.9,55
2013/4/15,1:00:00,293,���k��,8,8.2,71.7,0,0,270,��,14,49
2013/4/15,2:00:00,270,��,7.8,5.5,87.5,0,0,270,��,15.1,28
2013/4/15,3:00:00,225,�쐼,6.8,5.5,78.8,0,0,225,�쐼,16.8,21
2013/4/15,4:00:00,360,�k,1.3,4.6,76.5,0,0,248,���쐼,7.8,1
2013/4/15,5:00:00,270,��,6.6,4.9,56.9,0,0.01,248,���쐼,11.4,50
2013/4/15,6:00:00,270,��,7.5,4.2,44.2,0,0.04,270,��,13.4,49
2013/4/15,7:00:00,248,���쐼,5.3,5.8,45.6,0,0.3,270,��,12.1,2
2013/4/15,8:00:00,270,��,4.9,7.5,37.9,0,0.52,248,���쐼,8.6,8
2013/4/15,9:00:00,270,��,7.9,8.3,33,0,0.7,248,���쐼,13,14
2013/4/15,10:00:00,270,��,6.3,9.4,32,0,0.83,270,��,13.8,34
2013/4/15,11:00:00,270,��,8.4,9.3,29.8,0,0.93,248,���쐼,13.5,19
2013/4/15,12:00:00,270,��,5.9,10.6,31.6,0,0.96,270,��,14.8,35
2013/4/15,13:00:00,270,��,9.2,9.9,28.4,0,0.94,270,��,14.5,59
2013/4/15,14:00:00,270,��,7.4,10,29.3,0,0.83,225,�쐼,14,5
2013/4/15,15:00:00,248,���쐼,6.7,8.9,32.9,0,0.49,270,��,13.2,24
2013/4/15,16:00:00,248,���쐼,5.8,8.7,32.7,0,0.35,270,��,13.5,7
2013/4/15,17:00:00,248,���쐼,5,7.6,37.3,0,0.19,270,��,10.4,2
2013/4/15,18:00:00,270,��,3.2,5.9,42.4,0,0.07,270,��,10,6
2013/4/15,19:00:00,270,��,3.6,4.2,51.7,0,0.01,248,���쐼,7.1,7
2013/4/15,20:00:00,248,���쐼,3.8,5,49.2,0,0,270,��,5.8,12
2013/4/15,21:00:00,270,��,3.9,4.9,49.1,0,0,248,���쐼,9.2,28
2013/4/15,22:00:00,248,���쐼,2.5,3.4,52.9,0,0,270,��,5.8,11
2013/4/15,23:00:00,248,���쐼,4.5,4.1,50.4,0,0,248,���쐼,6.8,55
2013/4/15,0:00:00,270,��,0.4,-0.3,64.7,0,0,270,��,6.3,9
2013/4/16,1:00:00,135,�쓌,0.7,-1.4,72,0,0,270,��,2.5,29
2013/4/16,2:00:00,203,��쐼,1.3,-3.6,83.2,0,0,180,��,2.5,48
2013/4/16,3:00:00,360,�k,0.3,-4.7,87,0,0,270,��,1.7,5
2013/4/16,4:00:00,360,�k,0.4,-4.7,90.8,0,0,293,���k��,2.2,30
2013/4/16,5:00:00,270,��,1.5,-3.6,89.7,0,0.01,270,��,2.8,34
2013/4/16,6:00:00,315,�k��,0.5,-2.2,88.9,0,0.06,270,��,2.1,19
2013/4/16,7:00:00,90,��,0.5,4.3,70.4,0,0.28,270,��,6.8,18
2013/4/16,8:00:00,180,��,3.1,4.7,69.3,0,0.47,180,��,5.9,48
2013/4/16,9:00:00,180,��,4.5,5.5,69.2,0,0.61,180,��,8,39
2013/4/16,10:00:00,158,��쓌,3.5,7.1,65.2,0,0.8,158,��쓌,6.8,27
2013/4/16,11:00:00,113,���쓌,4,8.5,57.5,0,0.89,90,��,5.7,54
2013/4/16,12:00:00,113,���쓌,4.5,7.5,57.9,0,0.79,113,���쓌,6.9,41
2013/4/16,13:00:00,113,���쓌,2.8,7.6,56.9,0,0.78,90,��,6.1,0
2013/4/16,14:00:00,113,���쓌,3.2,8.3,48.9,0,0.63,135,�쓌,5.1,12
2013/4/16,15:00:00,135,�쓌,2.9,7.8,48.2,0,0.36,113,���쓌,5.1,8
2013/4/16,16:00:00,113,���쓌,2.7,6.9,52.5,0,0.21,135,�쓌,4.7,39
2013/4/16,17:00:00,135,�쓌,1.4,6.5,52.1,0,0.1,113,���쓌,4.3,17
2013/4/16,18:00:00,90,��,0.9,4.8,66,0,0.02,158,��쓌,2.5,10
2013/4/16,19:00:00,45,�k��,3.8,4.2,79.7,0,0,45,�k��,5.2,58
2013/4/16,20:00:00,68,���k��,3.3,3.9,83.6,0,0,45,�k��,4.9,58
2013/4/16,21:00:00,113,���쓌,2.5,2.6,90.6,0,0,45,�k��,6.1,14
2013/4/16,22:00:00,180,��,4.2,3,87.2,0,0,203,��쐼,10,22
2013/4/16,23:00:00,180,��,3.5,2.4,90.6,0,0,180,��,7.6,11
2013/4/16,0:00:00,180,��,3,2,93.3,0,0,180,��,7.1,18
2013/4/17,1:00:00,180,��,2.9,1.6,96.1,0,0,180,��,5.1,52
2013/4/17,2:00:00,180,��,1.3,0.4,99.3,0.5,0,203,��쐼,5.3,17
2013/4/17,3:00:00,203,�É�,0,0.3,100,0.5,0,135,�쓌,1.8,19
2013/4/17,4:00:00,90,�É�,0,0.2,100,0.5,0,90,�É�,0,0
2013/4/17,5:00:00,45,�É�,0,-0.1,100,1,0,45,�É�,0,0
2013/4/17,6:00:00,360,�É�,0,0.3,100,0.5,0.01,360,�É�,0,0
2013/4/17,7:00:00,360,�k,1.5,0.4,100,1,0.04,360,�k,2.2,58
2013/4/17,8:00:00,315,�k��,1,0.7,100,2,0.1,360,�k,1.8,0
2013/4/17,9:00:00,45,�k��,1.5,1.5,99.6,2.5,0.21,360,�k,3.7,34
2013/4/17,10:00:00,23,�k�k��,2,1.5,95.4,2,0.24,45,�k��,3.5,40